[[{"header":{"parameterUnit":"m.s-1","parameterCategory":1,"la1":30.2991,"la2":30.254,"lo1":-89.0895,"lo2":-89.0444,"dy":0.0017,"dx":0.0017,"nx":28,"ny":28,"refTime":"2024-07-12T21:00:00:Z","depth":0,"parameterNumber":2,"parameterNumberName":"U-component_of_WINDS"},"data":[0,0,0,0,0,0,0,0,0,0,0,0,0,0,0,0,0,0,0,0,0,0,0,0,0,0,0,0,0,0,0,0,0,0,0,0,0,0,0,0,0,0,0,0,0,0,0,0,0,0,0,0,0,0,0,0,0,0,2.1195,2.1195,0,2.1201,2.1201,2.1201,2.1118,2.1116,2.1113,2.1111,2.1123,2.1125,2.1127,0,0,0,0,0,0,0,0,0,0,0,0,0,2.1113,2.1115,2.1195,2.1195,2.1195,2.1201,2.1201,2.1201,2.1118,2.1116,2.1113,2.111,2.1122,2.1125,2.1128,0,0,0,0,0,0,0,0,0,0,0,0,0,2.1137,2.1116,2.1195,2.1154,2.1151,2.1201,2.1201,2.1201,2.1119,2.1116,2.1112,2.1109,2.1121,2.1124,2.1128,2.1219,0,0,2.1139,2.1141,0,0,0,0,0,0,0,0,2.1136,2.114,2.116,2.1157,2.1153,2.1155,2.1176,2.1208,2.112,2.1131,2.1111,2.1107,2.1137,2.1139,2.1148,2.122,2.122,2.1139,2.1142,2.1143,2.1144,0,0,0,0,0,0,0,2.1135,2.114,2.1198,2.1161,2.1157,2.1136,2.1136,2.1182,2.1153,2.113,2.1124,2.1126,2.1134,2.1144,2.1147,2.122,2.1139,2.1143,2.1145,2.1146,2.1363,2.1366,0,0,0,0,0,0,2.1138,2.1139,2.1197,2.1198,2.1136,2.1141,2.114,2.1158,2.1152,2.1148,2.1128,2.1122,2.114,2.1143,2.1147,2.125,2.1143,2.1147,2.1149,2.1359,2.1364,2.1368,0,0,0,0,0,0,2.1137,2.1144,2.1197,2.1167,2.1172,2.1146,2.1167,2.116,2.117,2.1151,2.1146,2.1144,2.1137,2.1142,2.12,2.125,2.1148,2.1152,2.1355,2.1361,2.1366,2.146,0,0,0,0,0,0,2.1135,2.1144,2.1178,2.1168,2.1174,2.125,2.117,2.1163,2.1176,2.1167,2.1164,2.1161,2.1135,2.1195,2.1204,2.1253,2.1154,2.1351,2.1358,2.1364,2.1452,2.1467,2.1481,0,0,0,0,0,2.1132,2.1207,2.118,2.1188,2.1216,2.1253,2.1257,2.1224,2.1181,2.1214,2.1201,2.1161,2.1243,2.1202,2.1211,2.1262,2.1347,2.1356,2.1364,2.1445,2.1464,2.148,0,0,0,0,0,0,2.1226,2.1205,2.1175,2.1249,2.1253,2.1239,2.1281,2.1246,2.1264,2.1255,2.1215,2.1215,2.1279,2.1277,2.1231,2.1348,2.1288,2.1298,2.1347,2.1365,2.1379,2.1378,2.1157,0,0,0,0,0,2.1255,2.1286,2.1266,2.1333,2.1336,2.1308,2.1324,2.1297,2.1301,2.1303,2.1295,2.1301,2.1327,2.1346,2.137,2.1451,2.1448,2.149,2.1505,2.1517,2.1526,2.1565,2.1582,2.1394,2.1394,2.1394,0,0,2.1316,2.1308,2.1331,2.1351,2.1351,2.1384,2.1311,2.135,2.1374,2.131,2.1362,2.1357,2.1361,2.143,2.146,2.143,2.1577,2.1527,2.1536,2.1539,2.1575,2.1593,2.1609,2.1399,2.1398,2.1398,0,0,2.1443,2.1441,2.1494,2.1495,2.1495,2.1475,2.1488,2.1478,2.1471,2.1523,2.1474,2.1503,2.1551,2.1554,2.1563,2.1686,2.1649,2.1696,2.1771,2.1809,2.1824,2.1837,2.1879,2.1895,2.1705,2.1705,2.1705,0,2.1519,2.1566,2.1527,2.1567,2.1577,2.1517,2.157,2.1573,2.1583,2.159,2.1556,2.1611,2.161,2.1678,2.1707,2.1717,2.1729,2.1696,2.1825,2.1838,2.1849,2.1888,2.1904,2.1711,2.171,2.171,2.1709,0,2.1657,2.169,2.1734,2.174,2.1754,2.1802,2.1769,2.1789,2.1761,2.1745,2.1797,2.1793,2.1813,2.1828,2.1802,2.1891,2.1871,2.1832,2.177,2.1873,2.1909,2.1924,2.1719,2.1717,2.1715,2.1714,0,0,2.1846,2.1827,2.1843,2.1843,2.1837,2.1862,2.1906,2.1923,2.1939,2.1947,2.1981,2.2021,2.1983,2.1992,2.1966,2.2001,2.2095,2.1956,2.1955,2.198,2.2189,2.2217,2.2236,2.207,2.2073,2.2075,2.2188,0,2.1967,2.2038,2.2003,2.2078,2.2107,2.2049,2.2086,2.2086,2.2072,2.2094,2.2079,2.2107,2.2056,2.206,2.2091,2.2077,2.2136,2.2069,2.2101,2.2103,2.21,2.2255,2.2286,2.2393,2.2202,2.2204,2.2206,0,2.2119,2.2128,2.2206,2.219,2.2201,2.2235,2.2246,2.2268,2.2267,2.2254,2.2262,2.2227,2.2268,2.2207,2.2262,2.2217,2.2228,2.2223,2.2226,2.2227,2.216,2.2258,2.2426,2.2442,2.2228,2.2227,2.2225,0,2.2245,2.2278,2.2327,2.233,2.2314,2.2339,2.2334,2.2328,2.234,2.235,2.2356,2.2372,2.2381,2.2394,2.2363,2.2322,2.2422,2.2359,2.2411,2.2412,2.2434,2.2433,2.2605,2.2445,2.2444,2.2444,2.2444,0,2.2383,2.2432,2.2383,2.2414,2.2466,2.2425,2.2478,2.2467,2.2462,2.2489,2.2441,2.2468,2.2427,2.245,2.2427,2.2474,2.2479,2.2469,2.2462,2.2473,2.2474,2.2479,2.247,2.2448,2.2447,2.2447,2.2446,0,2.2533,2.2502,2.2552,2.2531,2.2527,2.2566,2.2549,2.2576,2.2557,2.2592,2.2597,2.2568,2.2592,2.2562,2.2585,2.2569,2.2633,2.2616,2.2633,2.2627,2.2679,2.2674,2.2859,2.288,2.2709,2.271,2.2712,0,2.2623,2.2658,2.264,2.2653,2.265,2.2673,2.2682,2.2642,2.2655,2.2653,2.268,2.2699,2.2712,2.2753,2.2734,2.275,2.2732,2.2795,2.2734,2.2742,2.273,2.2727,2.2729,2.2808,2.281,2.2811,2.2813,0,2.2784,2.2765,2.278,2.2789,2.2802,2.2808,2.281,2.2824,2.2782,2.2798,2.282,2.283,2.285,2.2869,2.2879,2.2874,2.2836,2.2832,2.2844,2.2855,2.2862,2.2856,2.2665,2.2828,2.2827,2.2825,2.2825,2.2824,2.2904,2.2932,2.2922,2.2939,2.2936,2.2938,2.2961,2.2943,2.296,2.2971,2.2947,2.2975,2.2969,2.2978,2.2977,2.2998,2.2971,2.299,2.2994,2.2999,2.3006,2.2859,2.3,2.3,2.2999,2.2999,2.2999,0,2.3061,2.305,2.3067,2.3069,2.3083,2.3043,2.3043,2.3057,2.3081,2.3078,2.309,2.3114,2.3131,2.3112,2.3126,2.3146,2.3129,2.3151,2.3148,2.3147,2.3031,2.3017,2.3164,2.3164,2.3164,2.3164,2.3164,2.3164,2.3144,2.3186,2.3167,2.3207,2.3197,2.3221,2.3223,2.3225,2.3222,2.3249,2.3262,2.3249,2.3239,2.3251,2.3265,2.3258,2.3265,2.3293,2.3281,2.3172,2.3156,2.314,2.3127,2.3295,2.3295,2.3395,2.3396,2.3397]},{"header":{"parameterUnit":"m.s-1","parameterCategory":1,"la1":30.2991,"la2":30.254,"lo1":-89.0895,"lo2":-89.0444,"dy":0.0017,"dx":0.0017,"nx":28,"ny":28,"refTime":"2024-07-12T21:00:00:Z","depth":0,"parameterNumber":3,"parameterNumberName":"V-component_of_WINDS"},"data":[0,0,0,0,0,0,0,0,0,0,0,0,0,0,0,0,0,0,0,0,0,0,0,0,0,0,0,0,0,0,0,0,0,0,0,0,0,0,0,0,0,0,0,0,0,0,0,0,0,0,0,0,0,0,0,0,0,0,3.1125,3.1125,0,3.1187,3.1187,3.1188,3.1159,3.1157,3.1156,3.1154,3.1213,3.1216,3.1219,0,0,0,0,0,0,0,0,0,0,0,0,0,3.0976,3.0979,3.1124,3.1125,3.1126,3.1187,3.1187,3.1188,3.1159,3.1157,3.1155,3.1153,3.1212,3.1216,3.122,0,0,0,0,0,0,0,0,0,0,0,0,0,3.1039,3.098,3.1124,3.1119,3.1119,3.1186,3.1187,3.1188,3.1159,3.1157,3.1155,3.1153,3.1211,3.1216,3.122,3.1295,0,0,3.1234,3.1236,0,0,0,0,0,0,0,0,3.1036,3.1045,3.1119,3.1119,3.112,3.1163,3.1157,3.1224,3.116,3.1144,3.1154,3.1151,3.1198,3.1204,3.122,3.1298,3.13,3.1234,3.1237,3.1239,3.124,0,0,0,0,0,0,0,3.1031,3.1042,3.1149,3.112,3.112,3.1112,3.1118,3.1169,3.1183,3.1145,3.1143,3.1151,3.1198,3.1216,3.1221,3.1301,3.1234,3.1238,3.1241,3.1243,3.1442,3.1444,0,0,0,0,0,0,3.1028,3.1039,3.1147,3.1151,3.1071,3.1116,3.1124,3.1151,3.1183,3.1185,3.1153,3.115,3.1209,3.1216,3.1223,3.1312,3.1239,3.1243,3.1246,3.1439,3.1442,3.1445,0,0,0,0,0,0,3.1025,3.1038,3.1144,3.1094,3.1107,3.1121,3.1153,3.1154,3.1172,3.1189,3.1191,3.1169,3.1208,3.1217,3.1277,3.1313,3.1245,3.125,3.1436,3.144,3.1443,3.149,0,0,0,0,0,0,3.1021,3.1037,3.1067,3.1095,3.111,3.1199,3.1155,3.1157,3.118,3.1176,3.1204,3.1207,3.1207,3.1271,3.1282,3.1318,3.1253,3.1433,3.1438,3.1442,3.1485,3.1495,3.1503,0,0,0,0,0,3.1015,3.1077,3.1068,3.1082,3.1148,3.1201,3.1209,3.1209,3.1183,3.1212,3.1223,3.1206,3.1308,3.1277,3.1289,3.1328,3.143,3.1436,3.1442,3.1481,3.1493,3.1503,0,0,0,0,0,0,3.105,3.108,3.1071,3.1144,3.117,3.1196,3.1233,3.1222,3.1255,3.125,3.1247,3.1253,3.1316,3.1328,3.1293,3.1401,3.1365,3.1373,3.1391,3.1402,3.1411,3.1406,3.1257,0,0,0,0,0,3.1067,3.111,3.1133,3.1194,3.1208,3.1219,3.1242,3.1239,3.1266,3.1276,3.1292,3.1317,3.1354,3.1379,3.1415,3.1488,3.1492,3.152,3.1529,3.1536,3.1543,3.158,3.1593,3.1464,3.1464,3.1463,0,0,3.1101,3.1122,3.1149,3.1202,3.1222,3.1264,3.1228,3.1274,3.1305,3.1283,3.1341,3.1353,3.1381,3.1447,3.1477,3.146,3.158,3.1544,3.1549,3.1552,3.1588,3.16,3.1611,3.1468,3.1467,3.1466,0,0,3.1184,3.1205,3.1258,3.128,3.1311,3.1318,3.133,3.1358,3.1366,3.1424,3.1408,3.1444,3.1509,3.1529,3.1548,3.1639,3.1623,3.165,3.1696,3.1733,3.1743,3.1752,3.1783,3.1794,3.1657,3.1657,3.1658,0,3.1221,3.1286,3.1287,3.1335,3.1357,3.1341,3.1394,3.1414,3.1455,3.147,3.145,3.1531,3.1549,3.1619,3.1641,3.1658,3.167,3.1646,3.1742,3.1751,3.1759,3.1788,3.18,3.166,3.166,3.166,3.1659,0,3.1329,3.1375,3.1413,3.1455,3.1482,3.1532,3.1539,3.1566,3.1562,3.157,3.1628,3.1649,3.1688,3.1705,3.1701,3.1774,3.1762,3.1743,3.1705,3.1775,3.1802,3.1813,3.1665,3.1664,3.1663,3.1662,0,0,3.1435,3.1477,3.1491,3.1509,3.1542,3.1576,3.1625,3.1665,3.1687,3.1716,3.1755,3.1811,3.1793,3.1814,3.1812,3.1845,3.1913,3.182,3.1821,3.1835,3.1993,3.2006,3.2019,3.1904,3.1906,3.1908,3.199,0,3.1519,3.1606,3.1608,3.1686,3.1727,3.1712,3.1754,3.1778,3.1787,3.1821,3.183,3.1869,3.1844,3.1856,3.1888,3.1898,3.1944,3.1892,3.1938,3.194,3.193,3.2034,3.2048,3.2125,3.2001,3.2003,3.2004,0,3.1628,3.1662,3.1745,3.1772,3.1789,3.1827,3.1863,3.1897,3.1923,3.1927,3.1951,3.1944,3.1992,3.1955,3.2019,3.1984,3.2003,3.2011,3.2014,3.2016,3.1975,3.2038,3.215,3.2161,3.2021,3.202,3.2019,0,3.1694,3.176,3.1818,3.1834,3.1868,3.1895,3.191,3.1934,3.1958,3.1989,3.2003,3.2039,3.2058,3.2085,3.2087,3.2061,3.2152,3.2116,3.2155,3.2155,3.2173,3.2171,3.2288,3.2189,3.2188,3.2188,3.2188,0,3.1786,3.1837,3.1848,3.1884,3.194,3.1941,3.1996,3.2009,3.2031,3.2067,3.2056,3.209,3.2092,3.2126,3.2128,3.218,3.2189,3.2192,3.2191,3.2192,3.2191,3.2203,3.2197,3.2191,3.2191,3.219,3.2189,0,3.1869,3.1879,3.1941,3.1968,3.1976,3.2016,3.2038,3.2071,3.2079,3.2125,3.2136,3.2148,3.2188,3.2193,3.2239,3.224,3.2303,3.2298,3.2294,3.2293,3.2331,3.2326,3.2458,3.2474,3.2365,3.2366,3.2367,0,3.1926,3.1965,3.1997,3.2021,3.2038,3.2077,3.2101,3.2104,3.2129,3.2163,3.2191,3.223,3.2261,3.2325,3.2337,3.2372,3.2366,3.241,3.2371,3.237,3.2365,3.2362,3.2365,3.2417,3.2418,3.2419,3.242,0,3.2026,3.2029,3.2065,3.2103,3.2132,3.2162,3.2189,3.2209,3.2216,3.2244,3.2286,3.231,3.2358,3.2396,3.243,3.2444,3.2432,3.2432,3.2443,3.2443,3.2438,3.2439,3.2312,3.2429,3.2428,3.2427,3.2427,3.2426,3.2096,3.213,3.2158,3.2198,3.2219,3.2245,3.2277,3.229,3.2325,3.2365,3.2364,3.2409,3.2434,3.2479,3.2496,3.253,3.2515,3.2531,3.2534,3.2538,3.2541,3.2435,3.2536,3.2536,3.2536,3.2535,3.2535,0,3.2194,3.2211,3.2249,3.2288,3.2319,3.2308,3.2338,3.2364,3.2405,3.243,3.2461,3.2508,3.2545,3.256,3.2596,3.262,3.2615,3.2629,3.2626,3.2629,3.2553,3.2539,3.2632,3.2632,3.2632,3.2632,3.2632,3.2632,3.2248,3.2304,3.231,3.2376,3.2392,3.2438,3.2455,3.2479,3.2499,3.2552,3.2583,3.2594,3.2614,3.2652,3.2684,3.2688,3.27,3.2716,3.2717,3.2645,3.2635,3.2625,3.2612,3.2719,3.272,3.279,3.2791,3.2792]}]]